Location: Zagreb
(45.8000°N, 16.0000°E)
Time: 22:33:39
(UTC+01:00)

Vanguard 2 Rocket - Pass Details

Date: 30 January 2020
Orbit: 553 x 3327 km, 32.9° (Epoch: 24 February)

Event Time Altitude Azimuth Distance (km) Brightness Sun altitude
Exits shadow 05:56:19 - 227° (SW) 2,087 8.4 -14.9°
Reaches altitude 10° 05:56:35 10° 224° (SW) 2,019 8.4 -14.8°
Maximum altitude 05:59:47 19° 178° (S) 1,737 8.5 -14.3°
Drops below altitude 10° 06:03:50 10° 135° (SE) 2,661 10.2 -13.6°
Sets 06:07:56 0° 119° (ESE) 4,081 11.8 -12.9°
